SL-16 DEB, 22502

Orbit data source: Space-Track

SL-16 DEB, 22502 is space debris in LEO originally from a launch on Fri, 25 Dec 1992 UTC launched from the Tyuratam Missile And Space Complex (TTMTR). Debris objects in space refer to the collection of defunct objects orbiting the Earth. Examples of debris include non-operational satellites, rocket bodies, and fragments generated from explosions, collisions, or faulty payload assembly.

Loading next visibility...
Identifier
22502, 1992-093GM
Orbit
LEO
Country
Flag of CISCIS
Related business
Manufacturer
Unknown
Mission
Spacecraft
Bus & Motor
Unknown
Mass
Unknown
Launch date (UTC)
1992-12-25 (33 years ago)
Launch vehicle
Unknown
Launch site
Tyuratam Missile And Space Complex (TTMTR)
Object type
Payload
Rocket body
Debris
Shape & HBR
Unknown shape, 0.1 m
Radar Cross Section
Small (<0.1 m²)

Expand to show TLE details & history
Last TLE update: 1 day ago

TLE from 1 day ago
0 SL-16 DEB
1 22502U 92093GM  25348.31148375  .00000286  00000-0  24699-3 0  9997
2 22502  70.8165 349.4117 0153566 198.6132 173.0110 13.89620295668665
Epoch: 2025-12-14T07:28Z
TLE epoch observation values (Epoch: 2025-12-14T07:28:32.195Z)
Latitude
11.13052°
Longitude
157.95612°
Altitude
1,043 km
Speed
7.275 km/s
True Right ascension
23h 33m 15s
True Declination
11° 04' 05"
Sunlit
Object was in daylight at epoch
Visualization orbit readout
Latitude
Unknown
Longitude
Unknown
Altitude
Unknown
Speed
Unknown
Apparent Right ascension
Unknown
Apparent Declination
Unknown
Sunlit
N/A
Visualization observer readout
Local Sidereal Time
15:12:31
Azimuth
Unknown
Elevation
Unknown
Doppler factor
Unknown
Orbital elements
Apogee altitude
1,040.125 km
Perigee altitude
815.732 km
Semi-major axis
7,306.066 km
Eccentricity
0.01536
Inclination
70.8165°
RAAN
349.4117°
Arg. of periapsis
198.6132°
True anomaly
173.22112°
Mean anomaly
173.011°
Eccentric anomaly
173.11645°
Mean motion
3.4755 °/min
Orbital period
103.58 mins
BSTAR
0.00024699
Loading maneuver chart data...
Computing Atmospheric mass density...
Loading historical data...
Loading historical data...
Loading historical data...
Loading historical data...
Loading historical data...
Loading historical data...
Loading historical data...

Documentation

Showing up to 5 results
|